Regional Weather Roundup
Issued by NWS

Home | Current Version | Previous Version | Text Only | Print | Product List | Glossary On
Versions: 1 2 3 4 5 6 7 8 9 10 11 12 13 14 15 16 17 18 19 20 21 22 23 24 25 26 27 28 29 30 31 32 33 34 35 36 37 38 39 40 41 42 43 44 45 46 47 48 49 50
000
ASUS43 KLMK 110810
RWRKY
KENTUCKY REGIONAL WEATHER ROUNDUP
NATIONAL WEATHER SERVICE LOUISVILLE KY
300 AM EST SUN DEC 11 2016

NOTE "FAIR" INDICATES FEW OR NO CLOUDS BELOW 12,000 FEET
WITH NO SIGNIFICANT WEATHER AND/OR OBSTRUCTIONS TO VISIBILITY.

KYZ001>023-026-027-061>063-070>075-110900-
WESTERN AND SOUTH CENTRAL KENTUCKY

CITY           SKY/WX    TMP DP  RH WIND       PRES   REMARKS
PADUCAH        CLOUDY    39  16  39 S9        30.25F WCI  33
HENDERSON      CLOUDY    34  18  51 S6        30.27S WCI  29
OWENSBORO      CLOUDY    33  20  58 SE8       30.29F WCI  26
HOPKINSVILLE   CLOUDY    34  15  46 S7        30.27F WCI  28
BOWLING GREEN  CLOUDY    29  19  66 SE6       30.31F WCI  23
GLASGOW        CLOUDY    29  18  62 SE3       30.31F
$$

KYZ024-025-028>034-038-045-046-053-110900-
NORTH CENTRAL KENTUCKY

CITY           SKY/WX    TMP DP  RH WIND       PRES   REMARKS
LOUISVILLE/SDF CLOUDY    32  16  51 SE8       30.30F WCI  25
LOUISVILLE/LOU CLOUDY    32  17  54 SE3       30.32S
FORT KNOX      CLOUDY    33  16  51 SE9       30.26F WCI  25
$$

KYZ035>037-039>044-047>052-055>060-089>105-110900-
NORTHEAST KENTUCKY

CITY           SKY/WX    TMP DP  RH WIND       PRES   REMARKS
LEXINGTON      CLOUDY    30  15  53 SE13      30.31F WCI  20
COVINGTON      CLOUDY    29  18  63 E7        30.34F WCI  22
FRANKFORT      CLOUDY    30  16  56 S6        30.31F WCI  24
$$

KYZ054-064>069-076>088-106>120-110900-
SOUTHEAST KENTUCKY

CITY           SKY/WX    TMP DP  RH WIND       PRES   REMARKS
JACKSON        CLOUDY    28  15  58 SE3       30.34S
LONDON         CLOUDY    24  17  74 SE3       30.34F
SOMERSET       CLOUDY    23  19  86 CALM      30.37S
MIDDLESBORO    CLOUDY    22  20  91 CALM      30.39S
MONTICELLO     MOSUNNY   25  18  74 VRB5      30.36F WCI  19
$$





USA.gov is the U.S. government's official web portal to all federal, state and local government web resources and services.